Date,TemperatureHighF,TemperatureAvgF,TemperatureLowF,DewpointHighF,DewpointAvgF,DewpointLowF,HumidityHigh,HumidityAvg,HumidityLow,PressureMaxIn,PressureMinIn,WindSpeedMaxMPH,WindSpeedAvgMPH,GustSpeedMaxMPH,PrecipitationSumIn
2013-1-1,36.2,30.1,26.2,16.0,7.2,-2.0,50,38,25,30.34,30.19,7,2,9,0.00
2013-1-2,42.8,32.7,25.2,13.6,7.6,1.2,49,35,22,30.23,30.17,7,3,12,0.00
2013-1-3,39.1,34.0,30.1,11.7,5.1,-13.0,39,30,11,30.28,30.13,6,3,10,0.00
2013-1-4,43.0,39.6,35.6,12.8,-6.0,-31.0,31,16,4,30.33,30.21,4,1,4,0.00
2013-1-5,47.5,41.1,34.8,18.4,3.5,-20.0,34,22,7,30.27,30.13,4,1,6,0.00
2013-1-6,34.4,28.9,25.4,27.4,22.4,8.7,94,80,34,30.12,30.01,5,2,11,0.00
2013-1-7,37.0,29.6,21.6,25.8,19.6,10.5,94,71,35,30.22,29.98,9,3,16,0.00
2013-1-8,53.3,43.9,35.3,28.7,23.7,13.3,63,46,25,30.24,30.16,4,1,13,0.12
2013-1-9,52.3,46.9,38.3,31.0,25.3,19.8,61,44,28,30.20,29.90,6,2,8,0.00
2013-1-10,40.4,26.9,17.3,30.8,23.5,13.9,95,88,52,30.00,29.76,9,4,15,0.00
2013-1-11,24.8,18.7,15.3,16.7,14.1,11.8,89,82,64,30.24,30.00,8,3,15,0.00
2013-1-12,27.0,19.9,14.5,11.9,9.5,6.7,87,65,45,30.26,30.15,4,1,6,0.00
2013-1-13,28.6,21.5,15.6,9.8,5.7,-4.0,63,50,36,30.24,30.14,5,1,6,0.00
2013-1-14,24.6,19.0,11.6,7.1,-2.4,-9.0,53,38,28,30.45,30.19,6,3,15,0.00
2013-1-15,41.0,34.0,24.6,22.9,17.7,7.7,60,51,42,30.53,30.39,6,2,13,0.00
2013-1-16,44.7,41.0,37.4,22.4,17.6,5.2,51,39,20,30.40,30.24,8,2,13,0.06
2013-1-17,43.9,39.1,32.6,13.2,10.7,5.4,43,31,20,30.30,30.21,8,4,12,0.00
2013-1-18,49.7,43.5,39.7,18.0,9.0,-7.0,34,25,10,30.26,30.16,5,3,7,0.00
2013-1-19,49.3,42.7,36.9,13.9,4.9,-9.0,27,21,9,30.27,30.16,5,2,7,0.00
2013-1-20,46.3,42.8,38.3,11.7,2.0,-7.0,25,18,11,30.22,30.10,5,2,7,0.00
2013-1-21,49.8,43.5,38.8,12.5,3.2,-8.0,26,19,9,30.20,30.10,5,2,10,0.00
2013-1-22,58.8,50.6,43.8,13.4,0.4,-20.0,22,13,5,30.19,30.08,5,2,6,0.00
2013-1-23,55.5,49.3,38.9,33.2,27.9,14.2,80,44,23,30.10,30.01,7,2,10,0.00
2013-1-24,48.2,42.8,37.9,46.8,40.0,28.6,97,90,68,30.17,30.01,5,2,10,0.43
2013-1-25,46.0,43.2,41.3,44.2,41.4,39.2,97,94,78,30.17,29.94,6,1,6,0.81
2013-1-26,45.5,41.5,39.0,44.2,40.6,38.2,98,97,95,29.94,29.86,3,1,6,0.20
2013-1-27,39.5,33.4,23.0,38.7,32.5,21.7,97,97,94,29.94,29.86,5,2,10,0.08
2013-1-28,27.0,23.0,20.5,25.1,21.1,18.3,95,93,87,30.28,29.92,6,3,14,0.00
2013-1-29,47.3,33.4,22.3,30.0,24.3,16.1,87,70,50,30.35,30.25,7,3,11,0.17
2013-1-30,48.2,42.3,38.2,31.2,26.2,21.4,60,53,45,30.35,30.23,6,2,16,0.09
2013-1-31,50.1,44.1,39.9,30.8,27.3,19.1,60,52,35,30.25,30.14,4,1,7,0.00
2013-2-1,52.8,47.4,43.1,31.5,25.8,17.5,52,43,33,30.20,30.13,3,1,5,0.00
2013-2-2,55.4,48.9,42.5,31.9,25.7,19.4,66,41,30,30.22,30.11,3,0,4,0.01
2013-2-3,47.3,41.2,35.9,37.9,33.7,27.3,95,76,56,30.10,30.01,4,2,10,0.10
2013-2-4,51.9,45.1,39.3,34.3,26.8,18.3,62,49,34,30.13,30.02,5,1,12,0.00
2013-2-5,51.9,45.9,40.7,31.8,23.2,1.7,58,43,15,30.04,29.91,2,1,5,0.00
2013-2-6,49.4,41.9,35.4,27.3,18.2,-9.0,61,40,10,30.09,29.87,5,1,11,0.00
2013-2-7,47.9,41.0,29.8,36.2,22.7,11.4,95,54,28,30.09,29.82,6,2,10,0.00
2013-2-8,29.3,24.5,21.0,28.0,22.9,19.0,95,93,92,29.89,29.77,7,2,10,0.00
2013-2-9,28.8,23.5,19.6,26.9,21.7,17.6,94,93,92,30.17,29.90,2,0,5,0.00
2013-2-10,29.9,25.1,21.3,28.1,23.4,19.3,95,93,90,30.17,30.06,0,0,0,0.00
2013-2-11,29.6,24.6,19.8,23.8,14.8,6.1,94,69,42,30.35,30.09,7,1,14,0.00
2013-2-12,38.2,31.8,24.8,17.1,11.7,5.0,52,43,31,30.45,30.33,4,2,9,0.00
2013-2-13,45.0,39.3,32.5,22.1,17.8,11.4,50,42,30,30.36,30.21,4,2,9,0.06
2013-2-14,48.3,41.9,36.2,25.8,21.9,18.6,57,45,35,30.25,30.15,5,2,8,0.04
2013-2-15,55.2,45.2,38.2,26.0,12.8,-7.0,46,28,10,30.28,30.16,5,2,11,0.00
2013-2-16,56.7,49.2,42.0,21.9,-1.7,-28.0,28,15,3,30.27,29.95,4,1,5,0.00
2013-2-17,48.4,42.5,38.2,25.7,15.4,7.8,59,34,24,29.96,29.87,2,1,5,0.00
2013-2-18,49.3,41.3,35.4,29.5,19.6,10.2,79,43,30,30.00,29.88,6,2,6,0.00
2013-2-19,36.5,28.4,25.1,28.0,25.3,11.4,95,90,35,29.86,29.65,5,2,9,0.00
2013-2-20,30.0,23.9,17.1,28.7,22.2,14.9,95,93,91,30.09,29.62,7,2,13,0.00
2013-2-21,29.0,25.5,22.5,27.2,22.3,13.1,95,88,60,30.21,30.06,5,1,9,0.00
2013-2-22,40.9,32.6,21.8,25.6,16.5,7.8,78,52,38,30.32,30.21,4,1,7,0.00
2013-2-23,44.1,36.3,27.6,28.9,22.2,13.7,87,58,36,30.23,29.89,6,1,21,0.10
2013-2-24,35.3,29.2,22.8,10.9,1.8,-11.0,49,31,14,30.31,29.90,10,4,18,0.00
2013-2-25,44.8,37.7,29.1,18.2,6.4,-10.0,44,27,15,30.32,30.09,4,1,10,0.01
2013-2-26,46.2,37.8,30.1,19.5,10.7,0.0,54,34,19,30.17,29.97,8,3,16,0.00
2013-2-27,45.2,38.3,32.9,12.3,6.5,0.8,34,26,19,30.33,30.16,5,2,12,0.00
2013-2-28,52.4,43.9,37.1,20.2,11.8,3.5,39,27,21,30.38,30.31,5,1,8,0.00
2013-3-1,58.1,49.3,39.9,24.9,17.3,12.0,34,28,20,30.36,30.24,5,2,8,0.00
2013-3-2,59.5,51.7,46.1,23.7,16.9,8.1,38,25,18,30.28,30.07,4,1,8,0.00
2013-3-3,50.1,44.7,37.9,31.0,24.3,12.1,74,47,24,30.06,29.90,4,2,9,0.00
2013-3-4,51.1,42.5,34.1,42.0,33.3,30.5,90,71,56,30.10,29.91,7,2,11,0.00
2013-3-5,51.3,43.5,35.6,40.7,34.5,29.7,95,72,48,30.09,29.92,6,3,9,0.00
2013-3-6,43.9,35.8,30.3,37.5,33.0,29.2,96,90,72,30.03,29.93,6,2,10,0.00
2013-3-7,33.5,31.7,28.6,32.2,30.6,27.6,96,96,95,29.98,29.86,4,2,6,0.01
2013-3-8,29.4,27.8,25.6,28.1,26.6,24.3,96,95,94,30.04,29.74,5,1,8,0.00
2013-3-9,35.5,31.1,27.4,34.4,29.3,26.1,96,93,81,30.27,30.04,4,1,12,0.05
2013-3-10,46.9,39.6,32.3,27.2,17.7,4.8,81,44,18,30.35,30.26,9,3,14,0.10
2013-3-11,55.8,48.9,42.5,28.3,12.0,-7.0,42,23,10,30.27,30.06,5,1,7,0.15
2013-3-12,60.8,53.2,46.7,31.9,20.4,1.1,41,28,14,30.12,30.04,4,1,6,0.00
2013-3-13,66.2,58.1,51.0,33.8,23.4,11.4,33,26,19,30.14,30.05,3,1,5,0.00
2013-3-14,69.9,61.6,57.1,39.0,25.8,16.4,43,26,19,30.08,29.97,2,0,5,0.00
2013-3-15,66.4,58.2,50.1,35.9,26.5,5.4,51,30,15,29.99,29.84,2,1,5,0.00
2013-3-16,63.9,53.9,45.3,41.7,21.6,-5.0,53,29,9,29.87,29.80,7,2,11,0.00
2013-3-17,60.7,50.3,42.5,43.7,25.5,9.5,72,40,18,29.92,29.79,10,2,15,0.00
2013-3-18,58.2,50.4,44.2,35.5,18.6,4.9,47,29,17,29.98,29.88,5,1,10,0.00
2013-3-19,58.4,49.8,43.1,35.9,27.8,21.4,51,42,31,30.05,29.92,11,3,18,0.00
2013-3-20,54.6,50.4,46.3,42.7,34.8,30.1,73,55,46,30.04,29.87,8,2,16,0.00
2013-3-21,58.0,47.4,40.4,45.3,33.0,23.0,84,59,35,29.87,29.75,9,3,15,0.00
2013-3-22,57.6,44.6,34.7,38.0,23.4,4.0,85,47,18,29.90,29.70,6,2,11,0.00
2013-3-23,58.1,46.9,37.3,30.5,19.4,8.6,51,34,18,29.99,29.87,7,1,10,0.00
2013-3-24,60.4,49.4,42.4,34.5,20.0,10.8,70,32,23,29.97,29.89,4,1,7,0.00
2013-3-25,60.0,51.5,45.2,36.6,24.7,14.5,69,37,23,29.95,29.85,3,1,5,0.00
2013-3-26,56.5,49.0,43.3,35.1,27.7,14.3,69,45,24,29.89,29.83,3,1,6,0.00
2013-3-27,54.4,46.4,41.9,39.6,32.9,19.5,87,60,37,29.98,29.83,5,1,7,0.00
2013-3-28,59.1,48.4,41.7,42.8,33.4,27.8,82,57,39,30.05,29.96,3,1,5,0.00
2013-3-29,61.3,51.6,45.5,44.5,34.2,28.6,77,53,36,30.07,30.00,5,1,44,0.01
2013-3-30,58.5,51.1,43.1,40.3,31.6,9.5,82,50,19,30.03,29.96,4,1,6,0.00
2013-3-31,48.4,43.7,40.3,41.7,35.8,25.6,94,75,51,30.02,29.95,4,2,6,0.00
2013-4-1,44.4,38.1,32.1,39.8,35.3,30.5,95,90,79,30.11,30.01,4,1,9,0.00
2013-4-2,57.0,45.6,36.5,45.3,35.5,29.5,85,69,46,30.12,30.02,5,2,11,0.00
2013-4-3,65.2,54.2,46.2,39.2,31.2,24.2,56,42,32,30.08,29.98,3,1,6,0.00
2013-4-4,58.9,52.1,42.9,42.4,34.2,26.9,91,53,30,30.00,29.90,4,1,7,0.00
2013-4-5,53.6,45.5,39.4,45.9,39.9,31.5,95,82,50,30.00,29.92,4,1,8,0.00
2013-4-6,58.5,48.6,39.8,45.7,32.6,22.3,94,55,38,30.02,29.92,6,2,13,0.00
2013-4-7,60.7,49.2,42.2,48.3,34.3,22.5,84,58,35,29.94,29.72,9,3,14,0.00
2013-4-8,43.1,36.3,31.8,40.3,33.6,27.3,96,90,78,29.79,29.49,6,2,15,0.18
2013-4-9,49.7,37.8,27.3,29.1,19.6,8.0,91,54,19,30.08,29.79,9,4,20,0.00
2013-4-10,59.1,48.1,37.8,22.9,13.1,7.5,44,25,15,30.14,30.03,7,3,19,0.00
2013-4-11,59.5,52.1,45.5,38.7,25.5,14.0,77,37,23,30.03,29.69,3,1,8,0.00
2013-4-12,65.2,54.1,46.7,40.4,33.9,26.3,63,47,34,29.81,29.70,3,1,10,0.00
2013-4-13,59.9,52.6,45.6,43.1,30.8,17.4,89,45,30,29.81,29.69,4,2,8,0.00
2013-4-14,62.7,51.6,38.3,39.2,30.9,11.9,92,47,23,29.71,29.61,5,2,16,0.00
2013-4-15,48.0,38.4,34.8,37.9,33.5,18.5,96,86,31,29.81,29.62,6,2,10,0.01
2013-4-16,39.6,32.8,26.8,34.2,28.0,17.8,96,84,57,29.99,29.78,8,2,12,0.02
2013-4-17,46.8,36.0,25.8,23.3,12.5,4.8,81,43,20,30.21,30.00,13,3,18,0.00
2013-4-18,52.6,42.2,32.9,8.0,4.6,-1.0,33,22,12,30.28,30.17,5,2,12,0.00
2013-4-19,63.4,51.1,41.0,18.4,10.8,0.9,27,20,15,30.23,30.00,4,1,8,0.00
2013-4-20,69.9,56.9,45.7,35.8,25.4,16.6,48,30,21,30.00,29.87,6,1,11,0.00
2013-4-21,69.1,59.8,54.3,33.6,27.2,19.9,40,29,21,29.94,29.86,4,1,6,0.00
2013-4-22,63.7,57.0,50.7,41.0,29.9,9.8,56,37,16,29.89,29.74,2,0,6,0.00
2013-4-23,64.7,56.4,49.4,38.5,29.9,19.0,52,37,25,29.85,29.73,4,1,10,0.00
2013-4-24,61.4,52.4,40.1,48.1,33.2,15.1,93,52,22,29.82,29.69,3,0,4,0.00
2013-4-25,55.7,46.2,36.9,44.9,37.6,27.2,95,75,39,30.09,29.77,3,0,5,0.00
2013-4-26,65.3,56.5,49.6,39.6,25.8,12.3,53,31,18,30.12,30.04,3,1,7,0.00
2013-4-27,70.7,61.2,53.9,41.8,27.9,15.1,37,29,18,30.10,29.95,4,1,10,0.00
2013-4-28,74.6,63.5,55.6,36.6,25.6,14.5,30,24,17,29.94,29.78,4,1,6,0.00
2013-4-29,73.3,63.8,56.1,40.0,26.6,14.5,47,25,16,29.80,29.64,3,1,6,0.00
2013-4-30,65.0,57.0,50.4,46.4,34.4,21.0,71,44,26,29.71,29.62,3,1,6,0.00
2013-5-1,68.9,58.2,50.0,39.0,18.6,-12.0,65,26,6,30.04,29.72,5,1,8,0.00
2013-5-2,65.9,56.8,48.8,5.5,-5.3,-15.0,10,7,5,30.11,30.02,5,2,12,0.00
2013-5-3,72.2,60.5,52.2,21.1,5.9,-14.0,22,12,5,30.05,29.77,3,1,6,0.00
2013-5-4,64.4,54.8,45.1,39.3,18.9,2.2,80,29,12,29.77,29.61,5,1,9,0.00
2013-5-5,47.3,43.0,38.6,39.4,30.6,12.2,96,68,24,29.85,29.67,4,2,8,0.00
2013-5-6,41.5,38.9,35.8,40.7,38.0,35.0,97,97,96,29.98,29.83,6,3,11,0.32
2013-5-7,41.0,37.5,34.1,40.4,36.9,33.3,98,98,97,30.07,29.96,3,1,6,0.02
2013-5-8,48.9,40.8,35.0,48.0,39.9,34.4,98,97,93,30.09,30.05,2,0,7,0.00
2013-5-9,56.3,47.6,41.2,48.1,43.2,39.0,94,85,69,30.08,30.00,3,1,5,0.01
2013-5-10,67.1,55.1,43.5,47.8,40.7,31.6,92,62,33,30.10,30.00,4,1,10,0.00
2013-5-11,74.6,63.2,54.1,43.9,36.9,27.7,60,39,25,30.07,29.98,2,0,12,0.00
2013-5-12,78.2,67.3,59.7,40.8,34.2,26.6,49,30,20,30.04,29.88,3,0,5,0.00
2013-5-13,79.0,68.9,61.8,39.3,35.2,29.9,37,29,21,29.94,29.82,3,1,7,0.00
2013-5-14,70.1,62.0,52.3,38.7,30.0,19.2,51,30,23,29.84,29.76,5,2,8,0.00
2013-5-15,66.7,58.5,53.7,45.8,36.2,19.6,59,44,26,29.89,29.82,2,0,8,0.00
2013-5-16,63.4,55.9,48.5,46.9,39.1,27.4,85,55,34,29.83,29.75,4,1,4,0.00
2013-5-17,54.1,48.5,44.4,45.4,42.3,36.6,93,80,62,29.91,29.73,3,1,9,0.00
2013-5-18,61.0,52.0,41.8,49.8,39.2,28.0,93,63,39,29.98,29.89,4,1,9,0.00
2013-5-19,71.6,57.6,48.5,49.2,31.4,22.1,55,37,21,29.92,29.82,4,2,10,0.00
2013-5-20,71.9,61.4,51.6,44.9,26.1,17.4,52,27,15,29.91,29.83,2,1,7,0.00
2013-5-21,70.1,61.4,52.8,42.4,30.2,12.1,53,32,16,29.87,29.71,2,1,6,0.00
2013-5-22,62.9,54.5,43.5,47.8,36.7,22.6,95,55,29,29.72,29.62,3,2,8,0.00
2013-5-23,57.6,49.8,40.1,44.5,30.5,7.7,95,52,18,29.87,29.66,3,1,9,0.00
2013-5-24,59.8,52.9,48.0,44.0,17.7,-35.0,77,33,2,29.89,29.83,3,1,6,0.00
2013-5-25,58.6,52.0,45.1,39.5,26.5,2.8,76,40,13,29.92,29.84,3,1,5,0.00
2013-5-26,58.8,51.8,47.3,44.2,31.4,0.0,82,49,13,29.93,29.88,2,0,5,0.00
2013-5-27,67.2,55.1,46.8,50.5,38.8,31.1,77,55,37,29.91,29.78,2,0,7,0.00
2013-5-28,65.5,55.7,48.3,50.5,40.3,29.7,82,57,40,29.76,29.66,5,1,10,0.00
2013-5-29,71.1,59.2,48.7,52.2,38.4,23.6,69,48,27,29.77,29.66,6,2,11,0.00
2013-5-30,72.8,62.6,52.4,51.3,41.4,32.0,61,46,32,29.77,29.66,4,1,6,0.00
2013-5-31,78.9,67.5,58.6,51.0,34.3,18.4,42,30,19,29.79,29.71,3,1,6,0.00
2013-6-1,83.2,72.2,63.3,43.4,32.2,23.4,29,23,18,29.77,29.64,2,0,6,0.00
2013-6-2,74.5,67.3,59.7,52.4,37.3,23.9,69,35,21,29.66,29.54,3,1,5,0.00
2013-6-3,71.2,63.9,59.9,47.3,31.5,16.6,51,31,18,29.72,29.59,2,1,4,0.00
2013-6-4,72.5,63.9,58.4,47.0,25.5,3.4,56,25,10,29.81,29.70,2,0,3,0.00
2013-6-5,78.8,68.8,61.1,54.1,19.0,-39.0,49,21,1,29.83,29.73,1,0,3,0.00
2013-6-6,80.3,70.7,62.8,55.1,31.5,14.0,46,25,12,29.78,29.68,1,0,3,0.00
2013-6-7,86.3,74.5,67.9,51.8,23.4,-4.0,37,16,5,29.73,29.61,1,0,4,0.00
2013-6-8,86.3,75.6,69.5,54.7,32.0,16.5,39,21,12,29.68,29.59,3,1,5,0.00
2013-6-9,71.6,67.6,64.6,34.2,21.5,13.8,26,18,12,29.69,29.64,2,1,4,0.00
2013-6-10,65.4,60.2,55.6,46.3,35.8,19.5,62,42,21,29.84,29.78,5,1,9,0.00
2013-6-11,77.4,68.0,57.6,40.5,33.1,24.7,38,28,21,29.90,29.81,3,1,6,0.00
2013-6-12,71.5,65.8,59.4,50.6,37.0,11.9,61,36,15,29.83,29.77,3,0,5,0.00
2013-6-13,73.7,65.5,59.5,45.6,24.0,-27.0,41,24,2,29.87,29.78,3,0,4,0.00
2013-6-14,76.1,66.5,60.9,45.4,16.0,-10.0,45,17,5,29.80,29.68,2,0,4,0.00
2013-6-15,72.3,63.0,58.8,41.5,12.1,-20.0,44,16,3,29.84,29.70,3,1,4,0.00
2013-6-16,76.1,65.0,57.6,45.7,14.8,-28.0,43,18,2,29.90,29.81,2,0,4,0.00
2013-6-17,76.2,64.9,56.5,48.4,33.3,14.7,58,32,18,29.85,29.78,3,0,4,0.00
2013-6-18,72.6,63.5,56.7,45.7,34.7,24.4,56,35,24,29.78,29.69,4,1,5,0.00
2013-6-19,72.0,61.0,48.0,52.7,34.1,7.0,72,40,12,29.76,29.67,4,1,7,0.00
2013-6-20,71.9,62.2,55.1,46.0,33.0,0.0,70,36,9,29.74,29.69,4,0,4,0.00
2013-6-21,71.0,64.2,57.2,44.5,34.0,15.9,48,33,19,29.77,29.71,3,1,4,0.00
2013-6-22,74.6,67.6,56.6,49.5,44.4,42.1,70,44,38,29.73,29.62,2,1,5,0.00
2013-6-23,66.8,59.4,53.2,45.5,40.1,31.1,71,50,36,29.69,29.65,3,1,5,0.00
2013-6-24,63.9,56.5,51.9,49.1,42.3,31.9,84,60,40,29.82,29.66,4,1,7,0.00
2013-6-25,73.4,63.3,52.9,55.6,49.7,44.1,72,62,49,29.89,29.81,1,0,5,0.00
2013-6-26,79.8,70.2,62.9,52.9,49.8,44.7,65,49,38,29.88,29.83,2,0,6,0.00
2013-6-27,83.8,73.2,66.7,53.3,47.7,26.8,57,41,20,29.92,29.85,3,1,5,0.00
2013-6-28,87.6,76.6,69.6,52.0,34.4,2.0,42,24,6,29.89,29.76,3,0,6,0.00
2013-6-29,92.3,80.2,72.7,50.4,35.8,-5.0,34,22,4,29.80,29.65,2,0,4,0.00
2013-6-30,91.6,82.2,76.2,49.7,38.7,30.8,29,22,14,29.68,29.58,3,1,5,0.00
2013-7-1,82.4,76.5,69.2,51.3,42.8,31.7,47,31,19,29.74,29.61,4,1,7,0.00
2013-7-2,83.1,74.4,69.0,50.9,42.1,38.6,36,32,27,29.86,29.75,3,1,5,0.00
2013-7-3,86.3,75.5,71.2,52.8,46.7,41.5,47,36,30,29.78,29.64,2,0,6,0.00
2013-7-4,83.6,75.6,69.0,52.4,46.0,35.3,43,35,28,29.67,29.59,3,1,6,0.00
2013-7-5,81.3,72.7,66.8,53.5,46.5,32.3,56,40,24,29.66,29.59,2,0,4,0.00
2013-7-6,81.3,71.6,67.4,52.5,43.4,25.0,49,37,19,29.67,29.61,2,0,4,0.00
2013-7-7,83.5,74.2,67.9,50.5,33.7,14.3,36,24,11,29.71,29.63,3,1,4,0.00
2013-7-8,86.9,73.8,66.7,42.4,32.5,21.9,30,23,14,29.85,29.71,2,0,5,0.00
2013-7-9,84.3,75.3,67.5,47.8,35.6,27.2,29,24,16,29.89,29.81,2,1,5,0.00
2013-7-10,79.4,73.1,70.0,57.2,42.1,32.0,58,34,23,29.83,29.70,3,1,6,0.00
2013-7-11,69.4,65.7,61.0,56.6,46.6,36.9,74,52,31,29.79,29.71,2,0,5,0.00
2013-7-12,76.7,67.0,60.2,56.6,49.6,41.8,64,54,45,29.84,29.75,3,0,5,0.00
2013-7-13,81.9,71.4,63.4,51.5,37.5,11.5,46,30,12,29.85,29.74,2,0,5,0.00
2013-7-14,84.0,72.7,66.0,51.7,41.1,33.5,39,32,27,29.80,29.70,3,1,4,0.00
2013-7-15,78.2,70.3,62.6,50.2,41.3,31.1,41,35,29,29.74,29.67,3,1,6,0.00
2013-7-16,75.1,66.0,60.3,40.1,27.5,3.5,39,25,9,29.88,29.70,4,2,6,0.00
2013-7-17,79.3,68.0,59.9,36.6,22.2,1.4,36,19,9,29.95,29.86,3,0,5,0.00
2013-7-18,84.7,73.7,65.0,43.7,28.0,8.0,29,19,8,29.89,29.74,2,0,4,0.00
2013-7-19,82.1,75.9,70.5,49.8,31.1,5.5,44,21,7,29.77,29.64,2,0,6,0.00
2013-7-20,74.6,70.2,62.7,62.8,49.2,10.9,89,53,9,29.69,29.62,4,1,5,0.14
2013-7-21,70.6,65.3,61.6,60.5,56.4,50.5,89,73,60,29.80,29.64,5,0,9,0.06
2013-7-22,69.5,63.5,59.4,61.2,58.2,55.8,92,83,72,29.86,29.76,4,1,5,0.00
2013-7-23,75.3,66.8,59.9,59.8,55.7,47.8,81,68,52,29.90,29.82,3,1,4,0.00
2013-7-24,80.5,70.8,65.2,57.1,51.5,42.2,64,51,38,29.84,29.75,2,1,4,0.00
2013-7-25,82.0,72.9,67.9,52.9,45.6,38.8,51,38,30,29.86,29.77,3,1,5,0.00
2013-7-26,75.1,70.3,64.5,57.6,48.5,24.0,71,48,17,29.91,29.83,2,1,4,0.01
2013-7-27,79.8,69.9,64.7,55.7,52.5,42.6,72,55,41,29.87,29.74,3,0,5,0.00
2013-7-28,74.9,67.0,60.4,49.5,36.7,0.4,64,35,8,29.77,29.70,4,1,7,0.00
2013-7-29,75.4,67.0,61.5,42.3,24.3,2.8,39,22,9,29.90,29.77,3,0,5,0.00
2013-7-30,75.3,68.1,63.5,50.0,43.3,31.7,54,41,29,29.94,29.88,3,1,5,0.00
2013-7-31,76.5,68.6,64.4,49.4,34.8,12.8,49,31,11,29.93,29.81,4,2,7,0.00
2013-8-1,75.3,68.1,62.1,40.5,23.5,-1.0,43,21,7,29.85,29.75,3,2,5,0.00
2013-8-2,73.5,66.0,60.1,47.5,30.7,9.9,54,28,12,29.82,29.75,2,1,6,0.00
2013-8-3,74.8,66.5,59.2,40.9,15.0,-27.0,36,18,2,29.86,29.80,2,1,4,0.00
2013-8-4,77.2,69.5,64.0,39.1,19.2,-36.0,40,18,1,29.85,29.78,2,1,5,0.00
2013-8-5,77.2,68.2,63.4,39.3,19.0,-17.0,41,18,3,29.87,29.80,3,1,6,0.00
2013-8-6,75.3,66.6,60.4,44.5,24.1,-2.0,55,23,7,29.89,29.79,3,1,5,0.00
2013-8-7,74.2,65.3,59.2,36.4,23.6,8.2,42,21,12,29.93,29.85,3,1,6,0.00
2013-8-8,71.4,63.6,58.2,38.1,19.6,-4.0,46,21,7,29.88,29.78,5,2,6,0.00
2013-8-9,70.4,61.4,54.5,45.3,29.7,7.2,67,33,12,29.83,29.76,3,1,6,0.00
2013-8-10,71.0,62.1,54.1,42.5,28.0,10.6,63,29,16,29.91,29.82,2,0,5,0.00
2013-8-11,74.3,66.5,60.5,42.7,30.5,4.6,41,27,10,29.88,29.78,3,1,5,0.00
2013-8-12,64.1,63.1,62.3,28.2,25.7,18.3,27,24,17,29.81,29.78,0,0,1,0.00
2013-8-15,68.6,67.7,67.1,46.3,44.3,42.6,47,43,41,29.80,29.79,0,0,6,0.00
2013-8-16,82.3,73.0,67.6,51.2,47.6,42.6,53,41,31,29.82,29.77,2,0,5,0.00
2013-8-17,83.1,73.9,66.9,47.8,44.9,42.0,49,36,27,29.81,29.69,4,1,5,0.00
2013-8-18,84.8,75.3,69.4,53.5,48.7,41.8,54,39,32,29.73,29.65,4,2,7,0.00
2013-8-19,79.2,71.5,67.3,58.0,53.4,49.3,60,53,44,29.77,29.70,3,1,5,0.16
2013-8-20,80.4,71.6,66.6,51.9,45.3,34.9,58,41,23,29.79,29.73,4,1,5,0.00
2013-8-21,82.6,73.0,66.6,46.7,37.1,23.6,41,28,18,29.81,29.73,4,1,6,0.00
2013-8-22,82.0,72.4,66.3,45.9,42.3,38.1,42,34,25,29.80,29.70,3,1,6,0.00
2013-8-23,80.9,70.1,63.4,41.7,37.6,33.7,41,31,20,29.75,29.64,4,1,6,0.00
2013-8-24,78.8,68.0,61.8,49.9,39.6,31.2,64,37,18,29.75,29.67,4,2,8,0.00
2013-8-25,76.7,66.2,59.4,53.6,48.6,38.4,75,55,36,29.83,29.74,5,2,8,0.00
2013-8-26,66.2,62.5,59.5,58.4,54.7,49.9,86,76,65,29.83,29.77,3,0,4,0.00
2013-8-27,75.5,66.2,60.9,59.0,55.4,52.9,76,69,51,29.81,29.71,3,1,5,0.00
2013-8-28,79.5,69.8,63.7,55.7,54.1,51.8,74,58,43,29.81,29.70,4,1,6,0.00
2013-8-29,76.6,69.4,64.0,60.0,55.2,50.1,87,61,49,29.87,29.79,2,0,4,0.00
2013-8-30,72.7,65.6,61.7,63.1,60.5,57.6,95,84,67,29.90,29.83,3,0,4,0.07
2013-8-31,72.1,64.7,60.8,64.2,60.8,58.5,96,87,76,29.89,29.81,4,1,5,0.00
2013-9-1,76.0,66.9,59.7,59.7,55.2,49.3,95,67,49,29.85,29.78,5,1,6,0.00
2013-9-2,77.9,69.0,63.9,56.9,51.9,45.1,73,55,43,29.83,29.71,3,1,6,0.00
2013-9-3,79.6,70.3,63.4,56.6,53.9,50.4,71,57,41,29.82,29.75,4,1,6,0.00
2013-9-4,81.7,71.4,66.4,56.4,54.4,51.6,65,56,40,29.83,29.75,4,1,6,0.00
2013-9-5,82.0,71.6,65.9,55.1,53.6,51.8,66,54,36,29.82,29.75,7,1,8,0.00
2013-9-6,81.5,71.4,65.8,52.4,49.7,46.9,59,47,32,29.81,29.72,2,0,7,0.00
2013-9-7,77.5,67.8,61.3,55.7,50.8,46.3,77,56,42,29.79,29.72,3,0,8,0.10
2013-9-8,76.8,67.8,61.9,52.1,44.7,37.9,69,44,31,29.77,29.68,3,0,8,0.00
2013-9-9,74.5,65.9,57.4,51.9,46.1,42.7,73,49,35,29.72,29.62,3,1,8,0.02
2013-9-10,71.4,62.3,57.4,49.7,45.8,40.9,73,56,39,29.82,29.67,4,1,6,0.00
2013-9-11,72.1,63.6,57.7,47.1,39.5,34.1,67,42,31,29.89,29.82,3,1,5,0.00
2013-9-12,76.2,66.2,60.9,40.3,35.0,22.3,43,32,21,29.85,29.76,2,0,5,0.00
2013-9-13,79.9,69.3,62.1,42.3,27.1,12.5,37,21,13,29.78,29.60,2,0,3,0.00
2013-9-14,81.2,71.8,66.0,42.8,37.7,33.2,37,29,23,29.64,29.56,2,0,5,0.00
2013-9-15,81.4,71.7,66.4,48.0,38.7,31.0,50,31,23,29.68,29.60,4,1,6,0.00
2013-9-16,80.2,70.1,61.9,42.5,37.2,31.7,46,31,22,29.73,29.64,5,1,7,0.00
2013-9-17,71.5,63.9,57.9,43.7,34.0,11.1,59,34,14,29.67,29.60,5,2,8,0.00
2013-9-18,68.8,62.4,56.8,46.3,24.4,0.8,47,26,9,29.70,29.61,3,1,5,0.00
2013-9-19,76.4,65.8,57.6,46.5,30.0,21.5,41,27,21,29.75,29.67,3,1,4,0.00
2013-9-20,71.5,64.1,58.7,41.2,33.4,21.7,45,32,23,29.71,29.66,3,1,6,0.00
2013-9-21,62.3,55.7,44.9,46.7,27.1,-13.0,92,42,5,29.75,29.64,4,2,8,0.00
2013-9-22,59.8,49.7,39.1,42.4,31.7,14.7,93,55,21,29.89,29.64,7,1,12,0.00
2013-9-23,72.6,62.1,54.7,33.9,28.4,16.5,37,28,21,29.90,29.84,3,1,6,0.00
2013-9-24,71.4,62.2,54.5,40.0,31.8,27.7,46,32,23,29.86,29.74,3,1,13,0.00
2013-9-25,61.7,53.6,41.2,43.2,33.4,22.7,92,49,28,29.74,29.57,5,2,9,0.00
2013-9-26,51.6,42.8,38.7,40.9,33.9,14.3,96,75,23,29.91,29.57,5,1,9,0.01
2013-9-27,57.9,47.4,38.4,25.9,19.7,12.3,58,35,22,30.07,29.91,3,1,9,0.00
2013-9-28,67.7,56.5,47.0,21.3,13.7,4.9,26,18,15,30.07,30.00,4,1,6,0.00
2013-9-29,68.7,59.9,52.1,21.1,17.9,9.4,24,20,15,30.04,29.93,3,0,6,0.00
2013-9-30,71.1,61.8,56.7,33.7,23.0,11.4,36,23,16,29.95,29.79,2,0,6,0.00
2013-10-1,67.7,60.8,56.2,40.2,30.6,24.8,55,33,22,29.83,29.78,3,1,5,0.00
2013-10-2,65.4,57.4,49.8,44.8,34.9,10.6,80,45,16,29.83,29.75,3,1,5,0.00
2013-10-3,58.0,52.5,49.2,46.8,30.4,9.1,79,46,18,29.82,29.72,5,1,7,0.00
2013-10-4,58.0,48.9,43.2,18.4,11.1,4.9,30,22,12,30.12,29.84,6,2,10,0.00
2013-10-5,65.2,53.4,43.8,14.7,8.0,-3.0,29,17,9,30.20,30.10,6,2,11,0.00
2013-10-6,68.3,58.7,50.5,15.2,0.1,-25.0,15,10,3,30.12,29.98,4,1,7,0.00
2013-10-7,67.1,58.3,51.2,35.8,13.1,2.3,54,18,10,29.98,29.82,3,1,7,0.00
2013-10-8,58.6,51.3,41.3,44.0,26.0,8.3,95,44,17,29.84,29.66,3,1,5,0.00
2013-10-9,41.1,35.4,30.9,39.7,34.4,30.1,97,96,95,29.76,29.59,8,3,14,0.24
2013-10-10,41.2,35.1,29.0,40.4,34.2,28.0,97,97,96,30.11,29.77,1,0,3,0.21
2013-10-11,54.2,46.7,38.6,40.6,34.9,29.3,94,64,54,30.11,29.97,2,0,4,0.03
2013-10-12,57.3,49.2,44.2,41.4,33.3,25.6,82,55,43,29.98,29.85,2,0,5,0.00
2013-10-13,51.6,46.5,42.7,38.6,31.3,22.4,76,56,34,30.00,29.84,4,1,5,0.00
2013-10-14,56.9,49.1,43.2,29.7,24.3,7.2,50,38,19,30.05,29.98,4,1,9,0.00
2013-10-15,57.1,49.4,44.0,26.9,19.3,4.5,38,30,17,30.01,29.93,3,2,8,0.00
2013-10-16,59.0,49.2,43.3,24.0,18.3,11.1,39,29,22,30.10,29.98,5,1,8,0.00
2013-10-17,60.9,52.6,47.2,26.0,19.2,7.8,36,27,18,30.05,29.92,3,1,5,0.00
2013-10-18,63.9,55.7,49.5,24.2,14.6,-14.0,34,21,5,30.01,29.94,3,1,6,0.00
2013-10-19,67.7,57.6,51.8,26.6,6.2,-12.0,31,14,6,30.02,29.95,2,0,4,0.00
2013-10-20,64.7,58.6,54.4,26.4,12.5,0.0,31,17,10,29.95,29.82,2,0,3,0.00
2013-10-21,68.4,59.8,55.3,25.9,13.4,0.9,28,16,10,29.93,29.86,2,0,5,0.00
2013-10-22,67.8,59.8,55.5,35.3,17.1,6.9,42,20,13,29.94,29.84,2,0,4,0.00
2013-10-23,65.1,57.6,53.6,27.5,20.9,16.2,28,24,20,29.85,29.79,3,0,4,0.00
2013-10-24,64.4,56.7,51.4,33.5,20.6,14.6,36,25,18,29.96,29.82,3,0,8,0.00
2013-10-25,67.4,59.1,52.7,30.0,20.6,15.3,30,22,18,30.05,29.96,3,0,5,0.00
2013-10-26,68.0,60.8,56.6,27.9,22.5,15.8,31,23,19,30.05,29.93,2,0,4,0.00
2013-10-27,63.0,54.7,41.9,39.7,25.6,18.2,92,35,18,29.92,29.62,5,1,9,0.00
2013-10-28,41.6,36.6,32.5,39.7,35.5,31.7,97,96,93,29.89,29.58,8,4,14,0.21
2013-10-29,35.6,33.6,31.0,35.0,32.8,30.2,98,97,97,30.05,29.90,4,1,7,0.11
2013-10-30,46.3,38.1,31.2,40.4,30.0,0.0,98,77,16,30.15,30.03,3,1,7,0.01
2013-10-31,53.4,47.3,40.8,25.7,16.2,5.7,45,29,21,30.18,30.06,7,1,9,0.00
2013-11-1,59.9,52.8,47.0,28.8,23.0,0.0,42,32,10,30.13,30.00,4,1,8,0.00
2013-11-2,59.1,51.2,45.7,32.2,21.6,5.3,59,33,15,30.01,29.82,3,1,6,0.00
2013-11-3,52.0,46.7,42.7,38.6,29.5,22.5,73,52,40,29.83,29.74,2,0,6,0.00
2013-11-4,44.7,41.4,38.8,40.4,29.9,19.7,95,65,45,29.92,29.70,3,1,9,0.00
2013-11-5,45.6,39.9,35.5,22.8,9.6,-6.0,53,30,13,30.25,29.92,7,2,13,0.00
2013-11-6,54.2,48.0,38.8,14.9,3.6,-12.0,23,16,9,30.33,30.21,4,2,6,0.00
2013-11-7,62.3,56.2,52.4,21.2,13.4,3.9,24,18,13,30.20,29.99,2,0,3,0.00
2013-11-8,61.8,55.2,52.1,17.6,10.0,3.9,21,16,13,29.98,29.89,1,0,4,0.00
2013-11-9,60.1,54.5,51.0,16.4,8.3,-7.0,20,16,8,30.04,29.93,2,1,5,0.00
2013-11-10,59.0,54.8,51.6,17.5,9.7,-9.0,25,17,7,30.07,30.00,2,0,4,0.00
2013-11-11,62.8,56.9,53.2,25.3,14.7,0.6,30,20,10,30.09,30.01,1,0,4,0.00
2013-11-12,64.0,59.8,56.9,28.0,17.0,-1.0,29,20,8,30.16,30.07,2,0,3,0.00
2013-11-13,63.3,58.0,53.3,26.6,20.4,14.3,29,23,19,30.06,29.93,3,0,7,0.00
2013-11-14,64.3,56.0,50.7,26.7,21.2,16.3,37,26,19,29.96,29.70,3,1,7,0.00
2013-11-15,51.2,43.6,37.4,39.4,32.1,22.7,95,69,33,29.69,29.54,4,1,7,0.00
2013-11-16,40.3,37.5,35.4,38.5,35.9,33.4,97,94,88,29.92,29.68,2,0,4,0.00
2013-11-17,47.3,40.3,33.9,42.4,36.0,32.5,97,85,68,30.06,29.92,2,0,4,0.00
2013-11-18,43.7,41.9,40.5,38.6,37.4,36.5,93,84,78,30.03,30.01,2,1,3,0.00
2013-11-19,55.5,47.4,37.8,38.2,27.6,18.3,95,48,30,30.01,29.86,5,1,9,0.00
2013-11-20,46.9,42.0,37.8,41.0,36.9,30.3,96,83,54,29.87,29.79,2,0,8,0.00
2013-11-21,41.8,38.7,32.8,41.0,37.9,32.0,97,97,96,29.86,29.77,6,2,10,1.57
2013-11-22,33.6,31.3,29.7,33.0,30.6,28.9,98,97,97,29.91,29.83,5,2,12,0.03
2013-11-23,32.4,30.2,27.9,31.6,29.3,26.9,97,97,96,30.16,30.02,3,0,5,0.00
2013-11-24,33.3,30.5,28.7,32.7,29.8,27.9,98,97,97,30.29,30.15,3,0,5,0.00
2013-11-25,45.2,44.1,42.4,21.5,19.8,18.2,43,38,34,30.27,30.25,4,3,8,0.04
2013-11-26,52.4,47.6,42.2,33.2,25.1,18.7,52,41,33,30.25,30.06,5,1,8,0.00
2013-11-27,49.5,45.7,43.3,31.7,26.1,21.8,52,46,40,30.05,29.87,2,0,5,0.00
2013-11-28,45.1,41.4,37.8,29.8,28.4,26.5,68,60,53,30.07,29.93,2,0,5,0.00
2013-11-29,43.9,41.0,39.2,38.5,33.1,25.2,92,75,54,30.19,30.07,3,0,4,0.12
2013-11-30,48.6,42.6,38.1,37.9,34.0,29.0,91,72,60,30.23,30.14,4,1,7,0.01
2013-12-1,52.8,45.5,40.5,30.4,22.0,1.7,64,42,13,30.28,30.19,5,2,8,0.00
2013-12-2,58.2,52.8,48.9,28.5,15.0,1.6,34,22,13,30.21,29.83,5,1,6,0.00
2013-12-3,49.1,43.1,36.5,37.5,26.9,14.3,96,58,26,29.83,29.59,7,2,11,0.03
2013-12-4,36.5,28.2,21.9,35.4,22.8,17.3,96,81,54,29.96,29.60,10,1,10,0.01
2013-12-5,31.6,26.7,22.0,26.9,24.0,20.0,94,90,74,30.12,29.95,2,0,5,0.00
2013-12-6,29.5,26.7,22.9,27.0,24.5,21.1,95,92,83,30.20,30.11,2,1,5,0.00
2013-12-7,26.9,25.6,24.7,25.6,24.1,23.2,95,94,94,30.13,30.05,4,2,8,0.00
2013-12-8,28.8,23.4,16.6,27.5,21.4,11.2,95,92,76,30.25,30.09,4,1,9,0.00
2013-12-9,28.1,23.0,14.7,11.5,-1.7,-8.0,86,35,20,30.50,30.23,9,4,14,0.00
2013-12-10,45.6,37.0,23.4,15.3,0.9,-8.0,31,22,12,30.46,30.21,7,2,10,0.00
2013-12-11,46.8,41.1,35.0,13.7,0.8,-17.0,36,20,7,30.21,30.14,3,1,6,0.00
2013-12-12,44.9,41.3,37.9,23.8,12.5,0.0,52,31,17,30.22,30.13,5,1,6,0.00
2013-12-14,48.3,43.1,39.9,17.1,9.1,4.7,34,25,18,30.37,30.28,7,2,10,0.00
2013-12-15,60.4,49.1,36.5,20.4,12.6,4.9,34,24,12,30.34,30.20,7,4,11,0.00
2013-12-16,63.8,59.8,56.9,31.0,20.6,10.3,32,22,15,30.22,30.08,5,1,6,0.00
2013-12-17,65.5,60.4,57.0,28.3,18.8,12.7,30,20,15,30.09,29.95,2,0,4,0.00
2013-12-18,58.9,50.4,33.7,29.3,20.9,12.7,75,35,16,29.94,29.67,7,2,9,0.00
2013-12-19,36.7,31.2,29.2,31.0,29.5,23.3,96,94,58,29.79,29.59,5,1,8,0.00
2013-12-20,32.7,29.2,25.8,31.0,24.3,10.2,96,84,40,30.02,29.75,3,0,6,0.00
2013-12-21,68.4,42.4,33.0,50.5,24.8,12.5,73,50,26,30.05,29.93,4,1,8,0.09
2013-12-22,45.7,40.6,37.3,27.3,23.6,18.1,64,51,40,30.31,30.04,4,1,7,0.00
2013-12-23,45.1,41.7,36.4,31.0,26.3,22.6,61,54,42,30.37,30.27,8,3,9,0.00
2013-12-24,55.6,46.9,40.8,28.4,22.2,12.6,50,38,19,30.30,30.18,6,2,8,0.00
2013-12-25,53.2,42.9,38.2,21.4,12.7,-6.0,42,30,11,30.28,30.20,6,2,9,0.00
2013-12-26,53.6,45.1,39.1,11.1,1.9,-9.0,22,16,8,30.28,30.18,6,2,10,0.00
2013-12-27,57.3,49.8,41.9,15.2,4.5,-18.0,24,16,5,30.23,30.08,6,2,12,0.00
2013-12-28,54.3,47.9,40.7,17.4,7.2,2.0,25,19,15,30.07,29.89,3,0,10,0.00
2013-12-29,48.9,40.7,36.5,12.7,1.4,-26.0,36,21,4,30.24,29.98,6,2,12,0.00
2013-12-30,55.1,48.7,40.8,13.7,-9.9,-49.0,20,10,1,30.29,30.19,4,1,6,0.00
2013-12-31,55.7,50.6,47.4,15.8,3.6,-7.0,21,15,9,30.18,30.04,5,1,9,0.00
2014-1-1,52.7,47.8,44.0,17.2,12.7,2.9,30,24,16,30.15,30.05,6,3,7,0.00
2014-1-2,56.7,51.9,49.3,24.3,19.3,14.9,33,27,25,30.14,30.00,3,0,4,0.00